Weather History for Mobile Downtown, AL

Change the Weather History Date:

Wednesday, February 13, 2013

  Actual Average Record
Temperature  
Mean Temperature 58 °F -  
Max Temperature 69 °F 61 °F 78 °F (2007)
Min Temperature 44 °F 43 °F 26 °F (2006)
Degree Days  
Heating Degree Days 8    
Growing Degree Days 8 (Base 50)    
Moisture  
Dew Point 51 °F    
Average Humidity 87    
Maximum Humidity 96    
Minimum Humidity 74    
Precipitation  
Precipitation 0.33 in - - ()
Sea Level Pressure  
Sea Level Pressure 29.95 in    
Wind  
Wind Speed 7 mph (NW)    
Max Wind Speed 17 mph    
Max Gust Speed 20 mph    
Visibility 9 miles    
Events Rain    
Averages and records for this station are not official NWS values.
T = Trace of Precipitation, MM = Missing Value Source: NWS Daily Summary

Daily Weather History Graph

Daily Weather History Graph

Search for Another Location

Airport:

Trip Planner

Search our weather history database for the weather conditions in past years. The results will help you decide how hot, cold, wet, or windy it might be!

Date:

Astronomy

Feb. 13, 2013 Rise Set
Actual Time 6:34 AM CST 5:38 PM CST
Civil Twilight 6:09 AM CST 6:03 PM CST
Nautical Twilight 5:41 AM CST 6:31 PM CST
Astronomical Twilight 5:13 AM CST 7:00 PM CST
Moon 8:22 AM CST (2/13) 9:19 PM CST (2/13)
Length of Visible Light 11h 53m
Length of Day
11h 04m
Waxing Crescent, 14% of the Moon is Illuminated
Feb 13
Waxing Crescent
Feb 17
First Quarter
Feb 25
Full
Mar 4
Last Quarter
Mar 11
New

Hourly Weather History & Observations

Time (CST) Temp. Windchill Dew Point Humidity Pressure Visibility Wind Dir Wind Speed Gust Speed Precip Events Conditions
12:09 AM 69.8 °F - 66.2 °F 88% 29.80 in 8.0 mi Variable 3.5 mph - N/A   Mostly Cloudy
12:21 AM 69.8 °F - 66.2 °F 88% 29.79 in 8.0 mi South 4.6 mph - N/A   Scattered Clouds
12:53 AM 69.1 °F - 66.9 °F 93% 29.80 in 7.0 mi SW 4.6 mph - N/A   Scattered Clouds
1:04 AM 69.8 °F - 66.2 °F 88% 29.80 in 7.0 mi Variable 6.9 mph - N/A   Mostly Cloudy
1:53 AM 68.0 °F - 66.0 °F 93% 29.82 in 8.0 mi Variable 4.6 mph - N/A   Overcast
2:44 AM 66.2 °F - 62.6 °F 88% 29.85 in 10.0 mi West 6.9 mph 18.4 mph N/A   Mostly Cloudy
2:53 AM 64.9 °F - 61.0 °F 87% 29.86 in 10.0 mi WNW 16.1 mph 19.6 mph N/A   Mostly Cloudy
3:06 AM 62.6 °F - 57.2 °F 82% 29.85 in 10.0 mi West 13.8 mph 19.6 mph N/A   Partly Cloudy
3:27 AM 62.6 °F - 57.2 °F 82% 29.86 in 10.0 mi WNW 9.2 mph - N/A   Scattered Clouds
3:53 AM 60.1 °F - 55.9 °F 86% 29.87 in 10.0 mi WNW 6.9 mph - N/A   Scattered Clouds
4:53 AM 57.9 °F - 55.9 °F 93% 29.89 in 10.0 mi West 3.5 mph - N/A   Clear
6:53 AM 55.9 °F - 52.0 °F 87% 29.93 in 10.0 mi WNW 5.8 mph - N/A   Mostly Cloudy
7:53 AM 55.9 °F - 50.0 °F 80% 29.94 in 10.0 mi WNW 9.2 mph - N/A   Mostly Cloudy
8:53 AM 55.9 °F - 48.9 °F 77% 29.93 in 10.0 mi NW 10.4 mph - N/A   Mostly Cloudy
9:53 AM 55.0 °F - 48.0 °F 77% 29.96 in 10.0 mi NW 13.8 mph 18.4 mph N/A   Mostly Cloudy
10:53 AM 55.0 °F - 46.9 °F 74% 29.98 in 10.0 mi NW 10.4 mph - 0.00 in Rain Light Rain
11:53 AM 52.0 °F - 48.0 °F 86% 29.99 in 10.0 mi WNW 9.2 mph 18.4 mph 0.02 in Rain Light Rain
12:48 PM 51.8 °F - 48.2 °F 88% 29.99 in 10.0 mi NW 11.5 mph - 0.00 in   Overcast
12:53 PM 51.1 °F - 46.9 °F 86% 29.98 in 6.0 mi NW 16.1 mph - 0.00 in Rain Light Rain
1:53 PM 48.9 °F - 46.9 °F 93% 29.96 in 7.0 mi NW 10.4 mph 18.4 mph 0.10 in Rain Light Rain
2:21 PM 48.2 °F - 46.4 °F 93% 29.99 in 6.0 mi NW 17.3 mph - 0.07 in Rain Rain
2:39 PM 48.2 °F - 44.6 °F 87% 30.01 in 5.0 mi WNW 9.2 mph - 0.12 in Rain Rain
2:46 PM 48.2 °F - 44.6 °F 87% 30.00 in 4.0 mi NW 10.4 mph - 0.14 in Rain Heavy Rain
2:53 PM 46.9 °F - 45.0 °F 93% 29.99 in 5.0 mi NNW 9.2 mph - 0.16 in Rain Rain
3:53 PM 48.0 °F - 45.0 °F 89% 29.99 in 10.0 mi WNW 6.9 mph - 0.05 in   Mostly Cloudy
4:53 PM 48.0 °F - 46.0 °F 93% 29.99 in 10.0 mi NW 4.6 mph - N/A   Scattered Clouds
5:53 PM 48.0 °F - 46.0 °F 93% 30.01 in 10.0 mi NW 4.6 mph - N/A   Partly Cloudy
6:53 PM 48.0 °F - 46.9 °F 96% 30.02 in 10.0 mi NW 4.6 mph - N/A   Scattered Clouds
7:53 PM 48.0 °F - 46.0 °F 93% 30.03 in 10.0 mi NW 6.9 mph - N/A   Clear
8:53 PM 48.0 °F - 44.1 °F 86% 30.07 in 10.0 mi WNW 3.5 mph - N/A   Clear
9:53 PM 46.9 °F - 42.1 °F 83% 30.08 in 10.0 mi NNW 8.1 mph - N/A   Clear
10:53 PM 46.0 °F 42.5 °F 42.1 °F 86% 30.09 in 10.0 mi NNW 6.9 mph - N/A   Clear
11:53 PM 44.1 °F 40.1 °F 41.0 °F 89% 30.09 in 10.0 mi NNW 6.9 mph - N/A   Clear